Year,Month,Day,Hour,Minute,Value (Times are PST for insolation in W/m^2)
2010,11,03,00,00,0.00
2010,11,03,00,01,0.00
2010,11,03,00,02,0.00
2010,11,03,00,03,0.00
2010,11,03,00,04,0.00
2010,11,03,00,05,0.00
2010,11,03,00,06,0.00
2010,11,03,00,07,0.00
2010,11,03,00,08,0.00
2010,11,03,00,09,0.00
2010,11,03,00,10,0.00
2010,11,03,00,11,0.00
2010,11,03,00,12,0.00
2010,11,03,00,13,0.00
2010,11,03,00,14,0.00
2010,11,03,00,15,0.00
2010,11,03,00,16,0.00
2010,11,03,00,17,0.00
2010,11,03,00,18,0.00
2010,11,03,00,19,0.00
2010,11,03,00,20,0.00
2010,11,03,00,21,0.00
2010,11,03,00,22,0.00
2010,11,03,00,23,0.00
2010,11,03,00,24,0.00
2010,11,03,00,25,0.00
2010,11,03,00,26,0.00
2010,11,03,00,27,0.00
2010,11,03,00,28,0.00
2010,11,03,00,29,0.00
2010,11,03,00,30,0.00
2010,11,03,00,31,0.00
2010,11,03,00,32,0.00
2010,11,03,00,33,0.00
2010,11,03,00,34,0.00
2010,11,03,00,35,0.00
2010,11,03,00,36,0.00
2010,11,03,00,37,0.00
2010,11,03,00,38,0.00
2010,11,03,00,39,0.00
2010,11,03,00,40,0.00
2010,11,03,00,41,0.00
2010,11,03,00,42,0.00
2010,11,03,00,43,0.00
2010,11,03,00,44,0.00
2010,11,03,00,45,0.00
2010,11,03,00,46,0.00
2010,11,03,00,47,0.00
2010,11,03,00,48,0.00
2010,11,03,00,49,0.00
2010,11,03,00,50,0.00
2010,11,03,00,51,0.00
2010,11,03,00,52,0.00
2010,11,03,00,53,0.00
2010,11,03,00,54,0.00
2010,11,03,00,55,0.00
2010,11,03,00,56,0.00
2010,11,03,00,57,0.00
2010,11,03,00,58,0.00
2010,11,03,00,59,0.00
2010,11,03,01,00,0.00
2010,11,03,01,01,0.00
2010,11,03,01,02,0.00
2010,11,03,01,03,0.00
2010,11,03,01,04,0.00
2010,11,03,01,05,0.00
2010,11,03,01,06,0.00
2010,11,03,01,07,0.00
2010,11,03,01,08,0.00
2010,11,03,01,09,0.00
2010,11,03,01,10,0.00
2010,11,03,01,11,0.00
2010,11,03,01,12,0.00
2010,11,03,01,13,0.00
2010,11,03,01,14,0.00
2010,11,03,01,15,0.00
2010,11,03,01,16,0.00
2010,11,03,01,17,0.00
2010,11,03,01,18,0.00
2010,11,03,01,19,0.00
2010,11,03,01,20,0.00
2010,11,03,01,21,0.00
2010,11,03,01,22,0.00
2010,11,03,01,23,0.00
2010,11,03,01,24,0.00
2010,11,03,01,25,0.00
2010,11,03,01,26,0.00
2010,11,03,01,27,0.00
2010,11,03,01,28,0.00
2010,11,03,01,29,0.00
2010,11,03,01,30,0.00
2010,11,03,01,31,0.00
2010,11,03,01,32,0.00
2010,11,03,01,33,0.00
2010,11,03,01,34,0.00
2010,11,03,01,35,0.00
2010,11,03,01,36,0.00
2010,11,03,01,37,0.00
2010,11,03,01,38,0.00
2010,11,03,01,39,0.00
2010,11,03,01,40,0.00
2010,11,03,01,41,0.00
2010,11,03,01,42,0.00
2010,11,03,01,43,0.00
2010,11,03,01,44,0.00
2010,11,03,01,45,0.00
2010,11,03,01,46,0.00
2010,11,03,01,47,0.00
2010,11,03,01,48,0.00
2010,11,03,01,49,0.00
2010,11,03,01,50,0.00
2010,11,03,01,51,0.00
2010,11,03,01,52,0.00
2010,11,03,01,53,0.00
2010,11,03,01,54,0.00
2010,11,03,01,55,0.00
2010,11,03,01,56,0.00
2010,11,03,01,57,0.00
2010,11,03,01,58,0.00
2010,11,03,01,59,0.00
2010,11,03,02,00,0.00
2010,11,03,02,01,0.00
2010,11,03,02,02,0.00
2010,11,03,02,03,0.00
2010,11,03,02,04,0.00
2010,11,03,02,05,0.00
2010,11,03,02,06,0.00
2010,11,03,02,07,0.00
2010,11,03,02,08,0.00
2010,11,03,02,09,0.00
2010,11,03,02,10,0.00
2010,11,03,02,11,0.00
2010,11,03,02,12,0.00
2010,11,03,02,13,0.00
2010,11,03,02,14,0.00
2010,11,03,02,15,0.00
2010,11,03,02,16,0.00
2010,11,03,02,17,0.00
2010,11,03,02,18,0.00
2010,11,03,02,19,0.00
2010,11,03,02,20,0.00
2010,11,03,02,21,0.00
2010,11,03,02,22,0.00
2010,11,03,02,23,0.00
2010,11,03,02,24,0.00
2010,11,03,02,25,0.00
2010,11,03,02,26,0.00
2010,11,03,02,27,0.00
2010,11,03,02,28,0.00
2010,11,03,02,29,0.00
2010,11,03,02,30,0.00
2010,11,03,02,31,0.00
2010,11,03,02,32,0.00
2010,11,03,02,33,0.00
2010,11,03,02,34,0.00
2010,11,03,02,35,0.00
2010,11,03,02,36,0.00
2010,11,03,02,37,0.00
2010,11,03,02,38,0.00
2010,11,03,02,39,0.00
2010,11,03,02,40,0.00
2010,11,03,02,41,0.00
2010,11,03,02,42,0.00
2010,11,03,02,43,0.00
2010,11,03,02,44,0.00
2010,11,03,02,45,0.00
2010,11,03,02,46,0.00
2010,11,03,02,47,0.00
2010,11,03,02,48,0.00
2010,11,03,02,49,0.00
2010,11,03,02,50,0.00
2010,11,03,02,51,0.00
2010,11,03,02,52,0.00
2010,11,03,02,53,0.00
2010,11,03,02,54,0.00
2010,11,03,02,55,0.00
2010,11,03,02,56,0.00
2010,11,03,02,57,0.00
2010,11,03,02,58,0.00
2010,11,03,02,59,0.00
2010,11,03,03,00,0.00
2010,11,03,03,01,0.00
2010,11,03,03,02,0.00
2010,11,03,03,03,0.00
2010,11,03,03,04,0.00
2010,11,03,03,05,0.00
2010,11,03,03,06,0.00
2010,11,03,03,07,0.00
2010,11,03,03,08,0.00
2010,11,03,03,09,0.00
2010,11,03,03,10,0.00
2010,11,03,03,11,0.00
2010,11,03,03,12,0.00
2010,11,03,03,13,0.00
2010,11,03,03,14,0.00
2010,11,03,03,15,0.00
2010,11,03,03,16,0.00
2010,11,03,03,17,0.00
2010,11,03,03,18,0.00
2010,11,03,03,19,0.00
2010,11,03,03,20,0.00
2010,11,03,03,21,0.00
2010,11,03,03,22,0.00
2010,11,03,03,23,0.00
2010,11,03,03,24,0.00
2010,11,03,03,25,0.00
2010,11,03,03,26,0.00
2010,11,03,03,27,0.00
2010,11,03,03,28,0.00
2010,11,03,03,29,0.00
2010,11,03,03,30,0.00
2010,11,03,03,31,0.00
2010,11,03,03,32,0.00
2010,11,03,03,33,0.00
2010,11,03,03,34,0.00
2010,11,03,03,35,0.00
2010,11,03,03,36,0.00
2010,11,03,03,37,0.00
2010,11,03,03,38,0.00
2010,11,03,03,39,0.00
2010,11,03,03,40,0.00
2010,11,03,03,41,0.00
2010,11,03,03,42,0.00
2010,11,03,03,43,0.00
2010,11,03,03,44,0.00
2010,11,03,03,45,0.00
2010,11,03,03,46,0.00
2010,11,03,03,47,0.00
2010,11,03,03,48,0.00
2010,11,03,03,49,0.00
2010,11,03,03,50,0.00
2010,11,03,03,51,0.00
2010,11,03,03,52,0.00
2010,11,03,03,53,0.00
2010,11,03,03,54,0.00
2010,11,03,03,55,0.00
2010,11,03,03,56,0.00
2010,11,03,03,57,0.00
2010,11,03,03,58,0.00
2010,11,03,03,59,0.00
2010,11,03,04,00,0.00
2010,11,03,04,01,0.00
2010,11,03,04,02,0.00
2010,11,03,04,03,0.00
2010,11,03,04,04,0.00
2010,11,03,04,05,0.00
2010,11,03,04,06,0.00
2010,11,03,04,07,0.00
2010,11,03,04,08,0.00
2010,11,03,04,09,0.00
2010,11,03,04,10,0.00
2010,11,03,04,11,0.00
2010,11,03,04,12,0.00
2010,11,03,04,13,0.00
2010,11,03,04,14,0.00
2010,11,03,04,15,0.00
2010,11,03,04,16,0.00
2010,11,03,04,17,0.00
2010,11,03,04,18,0.00
2010,11,03,04,19,0.00
2010,11,03,04,20,0.00
2010,11,03,04,21,0.00
2010,11,03,04,22,0.00
2010,11,03,04,23,0.00
2010,11,03,04,24,0.00
2010,11,03,04,25,0.00
2010,11,03,04,26,0.00
2010,11,03,04,27,0.00
2010,11,03,04,28,0.00
2010,11,03,04,29,0.00
2010,11,03,04,30,0.00
2010,11,03,04,31,0.00
2010,11,03,04,32,0.00
2010,11,03,04,33,0.00
2010,11,03,04,34,0.00
2010,11,03,04,35,0.00
2010,11,03,04,36,0.00
2010,11,03,04,37,0.00
2010,11,03,04,38,0.00
2010,11,03,04,39,0.00
2010,11,03,04,40,0.00
2010,11,03,04,41,0.00
2010,11,03,04,42,0.00
2010,11,03,04,43,0.00
2010,11,03,04,44,0.00
2010,11,03,04,45,0.00
2010,11,03,04,46,0.00
2010,11,03,04,47,0.00
2010,11,03,04,48,0.00
2010,11,03,04,49,0.00
2010,11,03,04,50,0.00
2010,11,03,04,51,0.00
2010,11,03,04,52,0.00
2010,11,03,04,53,0.00
2010,11,03,04,54,0.00
2010,11,03,04,55,0.00
2010,11,03,04,56,0.00
2010,11,03,04,57,0.00
2010,11,03,04,58,0.00
2010,11,03,04,59,0.00
2010,11,03,05,00,0.00
2010,11,03,05,01,0.00
2010,11,03,05,02,0.00
2010,11,03,05,03,0.00
2010,11,03,05,04,0.00
2010,11,03,05,05,0.00
2010,11,03,05,06,0.00
2010,11,03,05,07,0.00
2010,11,03,05,08,0.00
2010,11,03,05,09,0.00
2010,11,03,05,10,0.00
2010,11,03,05,11,0.00
2010,11,03,05,12,0.00
2010,11,03,05,13,0.00
2010,11,03,05,14,0.00
2010,11,03,05,15,0.00
2010,11,03,05,16,0.00
2010,11,03,05,17,0.00
2010,11,03,05,18,0.00
2010,11,03,05,19,0.00
2010,11,03,05,20,0.00
2010,11,03,05,21,0.00
2010,11,03,05,22,0.00
2010,11,03,05,23,0.00
2010,11,03,05,24,0.00
2010,11,03,05,25,0.00
2010,11,03,05,26,0.00
2010,11,03,05,27,0.00
2010,11,03,05,28,0.00
2010,11,03,05,29,0.00
2010,11,03,05,30,0.00
2010,11,03,05,31,0.00
2010,11,03,05,32,0.00
2010,11,03,05,33,0.00
2010,11,03,05,34,0.00
2010,11,03,05,35,0.00
2010,11,03,05,36,0.00
2010,11,03,05,37,0.00
2010,11,03,05,38,0.00
2010,11,03,05,39,0.00
2010,11,03,05,40,0.00
2010,11,03,05,41,0.00
2010,11,03,05,42,0.00
2010,11,03,05,43,0.00
2010,11,03,05,44,0.00
2010,11,03,05,45,0.00
2010,11,03,05,46,0.00
2010,11,03,05,47,0.00
2010,11,03,05,48,0.00
2010,11,03,05,49,0.00
2010,11,03,05,50,0.00
2010,11,03,05,51,0.00
2010,11,03,05,52,0.00
2010,11,03,05,53,0.00
2010,11,03,05,54,0.00
2010,11,03,05,55,0.00
2010,11,03,05,56,0.00
2010,11,03,05,57,0.00
2010,11,03,05,58,0.00
2010,11,03,05,59,0.00
2010,11,03,06,00,0.00
2010,11,03,06,01,0.00
2010,11,03,06,02,0.00
2010,11,03,06,03,0.00
2010,11,03,06,04,0.00
2010,11,03,06,05,0.00
2010,11,03,06,06,0.00
2010,11,03,06,07,0.00
2010,11,03,06,08,0.00
2010,11,03,06,09,0.00
2010,11,03,06,10,0.00
2010,11,03,06,11,0.00
2010,11,03,06,12,0.00
2010,11,03,06,13,0.00
2010,11,03,06,14,0.00
2010,11,03,06,15,0.00
2010,11,03,06,16,0.00
2010,11,03,06,17,0.00
2010,11,03,06,18,0.00
2010,11,03,06,19,0.00
2010,11,03,06,20,0.00
2010,11,03,06,21,0.00
2010,11,03,06,22,0.00
2010,11,03,06,23,0.00
2010,11,03,06,24,0.00
2010,11,03,06,25,0.00
2010,11,03,06,26,0.00
2010,11,03,06,27,0.00
2010,11,03,06,28,0.00
2010,11,03,06,29,0.00
2010,11,03,06,30,0.00
2010,11,03,06,31,0.00
2010,11,03,06,32,0.00
2010,11,03,06,33,0.00
2010,11,03,06,34,0.00
2010,11,03,06,35,0.00
2010,11,03,06,36,0.00
2010,11,03,06,37,0.00
2010,11,03,06,38,0.00
2010,11,03,06,39,0.00
2010,11,03,06,40,0.00
2010,11,03,06,41,0.00
2010,11,03,06,42,0.00
2010,11,03,06,43,0.00
2010,11,03,06,44,0.00
2010,11,03,06,45,0.00
2010,11,03,06,46,0.00
2010,11,03,06,47,0.00
2010,11,03,06,48,0.00
2010,11,03,06,49,0.00
2010,11,03,06,50,0.00
2010,11,03,06,51,0.00
2010,11,03,06,52,0.00
2010,11,03,06,53,0.00
2010,11,03,06,54,0.00
2010,11,03,06,55,0.00
2010,11,03,06,56,0.00
2010,11,03,06,57,0.00
2010,11,03,06,58,0.00
2010,11,03,06,59,0.00
2010,11,03,07,00,0.00
2010,11,03,07,01,0.00
2010,11,03,07,02,0.00
2010,11,03,07,03,0.00
2010,11,03,07,04,0.00
2010,11,03,07,05,0.00
2010,11,03,07,06,0.00
2010,11,03,07,07,0.00
2010,11,03,07,08,0.00
2010,11,03,07,09,0.00
2010,11,03,07,10,0.00
2010,11,03,07,11,0.00
2010,11,03,07,12,0.00
2010,11,03,07,13,0.00
2010,11,03,07,14,0.00
2010,11,03,07,15,0.00
2010,11,03,07,16,0.00
2010,11,03,07,17,0.00
2010,11,03,07,18,0.00
2010,11,03,07,19,0.00
2010,11,03,07,20,0.00
2010,11,03,07,21,0.00
2010,11,03,07,22,0.00
2010,11,03,07,23,0.00
2010,11,03,07,24,0.00
2010,11,03,07,25,0.00
2010,11,03,07,26,0.00
2010,11,03,07,27,0.00
2010,11,03,07,28,0.00
2010,11,03,07,29,0.00
2010,11,03,07,30,0.00
2010,11,03,07,31,0.00
2010,11,03,07,32,0.00
2010,11,03,07,33,0.00
2010,11,03,07,34,0.00
2010,11,03,07,35,0.00
2010,11,03,07,36,0.00
2010,11,03,07,37,0.00
2010,11,03,07,38,0.00
2010,11,03,07,39,0.00
2010,11,03,07,40,0.00
2010,11,03,07,41,0.00
2010,11,03,07,42,0.00
2010,11,03,07,43,0.00
2010,11,03,07,44,0.00
2010,11,03,07,45,0.00
2010,11,03,07,46,0.00
2010,11,03,07,47,0.00
2010,11,03,07,48,0.00
2010,11,03,07,49,0.00
2010,11,03,07,50,0.00
2010,11,03,07,51,0.00
2010,11,03,07,52,0.00
2010,11,03,07,53,3.60
2010,11,03,07,54,5.00
2010,11,03,07,55,5.00
2010,11,03,07,56,5.20
2010,11,03,07,57,7.00
2010,11,03,07,58,7.00
2010,11,03,07,59,7.00
2010,11,03,08,00,7.00
2010,11,03,08,01,7.00
2010,11,03,08,02,7.00
2010,11,03,08,03,7.00
2010,11,03,08,04,7.00
2010,11,03,08,05,7.30
2010,11,03,08,06,9.00
2010,11,03,08,07,9.00
2010,11,03,08,08,9.90
2010,11,03,08,09,11.00
2010,11,03,08,10,11.70
2010,11,03,08,11,13.60
2010,11,03,08,12,14.00
2010,11,03,08,13,15.90
2010,11,03,08,14,16.40
2010,11,03,08,15,18.00
2010,11,03,08,16,18.00
2010,11,03,08,17,18.00
2010,11,03,08,18,18.00
2010,11,03,08,19,18.80
2010,11,03,08,20,19.00
2010,11,03,08,21,19.00
2010,11,03,08,22,19.00
2010,11,03,08,23,19.50
2010,11,03,08,24,21.00
2010,11,03,08,25,21.00
2010,11,03,08,26,21.00
2010,11,03,08,27,22.30
2010,11,03,08,28,23.00
2010,11,03,08,29,23.00
2010,11,03,08,30,24.90
2010,11,03,08,31,25.20
2010,11,03,08,32,26.00
2010,11,03,08,33,26.70
2010,11,03,08,34,28.00
2010,11,03,08,35,29.20
2010,11,03,08,36,31.40
2010,11,03,08,37,32.80
2010,11,03,08,38,33.00
2010,11,03,08,39,35.20
2010,11,03,08,40,37.40
2010,11,03,08,41,39.30
2010,11,03,08,42,40.80
2010,11,03,08,43,42.00
2010,11,03,08,44,43.20
2010,11,03,08,45,44.00
2010,11,03,08,46,45.70
2010,11,03,08,47,46.00
2010,11,03,08,48,46.00
2010,11,03,08,49,46.00
2010,11,03,08,50,46.30
2010,11,03,08,51,47.00
2010,11,03,08,52,47.00
2010,11,03,08,53,47.00
2010,11,03,08,54,48.50
2010,11,03,08,55,49.00
2010,11,03,08,56,49.10
2010,11,03,08,57,50.60
2010,11,03,08,58,49.50
2010,11,03,08,59,51.00
2010,11,03,09,00,69.50
2010,11,03,09,01,72.40
2010,11,03,09,02,57.80
2010,11,03,09,03,52.00
2010,11,03,09,04,52.80
2010,11,03,09,05,74.70
2010,11,03,09,06,93.50
2010,11,03,09,07,82.00
2010,11,03,09,08,59.90
2010,11,03,09,09,86.10
2010,11,03,09,10,83.30
2010,11,03,09,11,87.20
2010,11,03,09,12,91.30
2010,11,03,09,13,86.30
2010,11,03,09,14,88.30
2010,11,03,09,15,109.80
2010,11,03,09,16,157.50
2010,11,03,09,17,160.00
2010,11,03,09,18,161.20
2010,11,03,09,19,162.00
2010,11,03,09,20,162.00
2010,11,03,09,21,162.90
2010,11,03,09,22,165.00
2010,11,03,09,23,165.50
2010,11,03,09,24,167.60
2010,11,03,09,25,169.80
2010,11,03,09,26,171.50
2010,11,03,09,27,173.30
2010,11,03,09,28,175.50
2010,11,03,09,29,176.00
2010,11,03,09,30,178.70
2010,11,03,09,31,179.30
2010,11,03,09,32,181.50
2010,11,03,09,33,183.80
2010,11,03,09,34,185.50
2010,11,03,09,35,187.10
2010,11,03,09,36,190.70
2010,11,03,09,37,192.80
2010,11,03,09,38,194.70
2010,11,03,09,39,197.20
2010,11,03,09,40,199.20
2010,11,03,09,41,201.30
2010,11,03,09,42,204.80
2010,11,03,09,43,206.50
2010,11,03,09,44,208.20
2010,11,03,09,45,210.40
2010,11,03,09,46,213.50
2010,11,03,09,47,215.90
2010,11,03,09,48,218.30
2010,11,03,09,49,220.20
2010,11,03,09,50,221.70
2010,11,03,09,51,223.90
2010,11,03,09,52,227.30
2010,11,03,09,53,229.00
2010,11,03,09,54,229.70
2010,11,03,09,55,231.80
2010,11,03,09,56,233.90
2010,11,03,09,57,234.50
2010,11,03,09,58,237.50
2010,11,03,09,59,239.80
2010,11,03,10,00,242.00
2010,11,03,10,01,243.00
2010,11,03,10,02,243.70
2010,11,03,10,03,247.10
2010,11,03,10,04,249.80
2010,11,03,10,05,251.00
2010,11,03,10,06,251.40
2010,11,03,10,07,253.60
2010,11,03,10,08,255.80
2010,11,03,10,09,257.50
2010,11,03,10,10,258.00
2010,11,03,10,11,259.50
2010,11,03,10,12,261.70
2010,11,03,10,13,264.00
2010,11,03,10,14,265.30
2010,11,03,10,15,267.60
2010,11,03,10,16,269.00
2010,11,03,10,17,270.00
2010,11,03,10,18,271.60
2010,11,03,10,19,273.40
2010,11,03,10,20,275.60
2010,11,03,10,21,276.00
2010,11,03,10,22,278.10
2010,11,03,10,23,279.00
2010,11,03,10,24,279.60
2010,11,03,10,25,282.70
2010,11,03,10,26,285.00
2010,11,03,10,27,286.20
2010,11,03,10,28,287.70
2010,11,03,10,29,288.00
2010,11,03,10,30,289.80
2010,11,03,10,31,292.00
2010,11,03,10,32,292.50
2010,11,03,10,33,294.30
2010,11,03,10,34,295.90
2010,11,03,10,35,298.10
2010,11,03,10,36,300.30
2010,11,03,10,37,301.00
2010,11,03,10,38,301.90
2010,11,03,10,39,302.10
2010,11,03,10,40,304.30
2010,11,03,10,41,306.00
2010,11,03,10,42,306.80
2010,11,03,10,43,308.00
2010,11,03,10,44,308.60
2010,11,03,10,45,310.40
2010,11,03,10,46,311.00
2010,11,03,10,47,312.90
2010,11,03,10,48,315.10
2010,11,03,10,49,316.00
2010,11,03,10,50,316.60
2010,11,03,10,51,318.00
2010,11,03,10,52,319.00
2010,11,03,10,53,321.30
2010,11,03,10,54,322.00
2010,11,03,10,55,324.50
2010,11,03,10,56,323.30
2010,11,03,10,57,325.20
2010,11,03,10,58,327.00
2010,11,03,10,59,327.70
2010,11,03,11,00,329.00
2010,11,03,11,01,329.60
2010,11,03,11,02,331.40
2010,11,03,11,03,333.50
2010,11,03,11,04,334.00
2010,11,03,11,05,335.90
2010,11,03,11,06,336.40
2010,11,03,11,07,338.00
2010,11,03,11,08,338.40
2010,11,03,11,09,339.00
2010,11,03,11,10,340.20
2010,11,03,11,11,342.50
2010,11,03,11,12,343.00
2010,11,03,11,13,344.90
2010,11,03,11,14,345.10
2010,11,03,11,15,346.50
2010,11,03,11,16,348.00
2010,11,03,11,17,348.90
2010,11,03,11,18,350.00
2010,11,03,11,19,351.30
2010,11,03,11,20,352.00
2010,11,03,11,21,354.70
2010,11,03,11,22,355.10
2010,11,03,11,23,357.40
2010,11,03,11,24,359.00
2010,11,03,11,25,359.00
2010,11,03,11,26,359.50
2010,11,03,11,27,361.20
2010,11,03,11,28,363.40
2010,11,03,11,29,362.40
2010,11,03,11,30,363.80
2010,11,03,11,31,366.00
2010,11,03,11,32,366.20
2010,11,03,11,33,367.00
2010,11,03,11,34,367.90
2010,11,03,11,35,370.00
2010,11,03,11,36,371.00
2010,11,03,11,37,371.00
2010,11,03,11,38,371.00
2010,11,03,11,39,372.90
2010,11,03,11,40,373.00
2010,11,03,11,41,373.30
2010,11,03,11,42,374.80
2010,11,03,11,43,376.00
2010,11,03,11,44,376.00
2010,11,03,11,45,377.40
2010,11,03,11,46,378.00
2010,11,03,11,47,378.00
2010,11,03,11,48,380.00
2010,11,03,11,49,380.00
2010,11,03,11,50,380.00
2010,11,03,11,51,380.40
2010,11,03,11,52,381.00
2010,11,03,11,53,382.20
2010,11,03,11,54,383.00
2010,11,03,11,55,383.00
2010,11,03,11,56,384.90
2010,11,03,11,57,385.30
2010,11,03,11,58,387.20
2010,11,03,11,59,387.70
2010,11,03,12,00,387.00
2010,11,03,12,01,387.50
2010,11,03,12,02,388.00
2010,11,03,12,03,389.50
2010,11,03,12,04,390.00
2010,11,03,12,05,390.20
2010,11,03,12,06,392.00
2010,11,03,12,07,392.00
2010,11,03,12,08,392.00
2010,11,03,12,09,393.00
2010,11,03,12,10,394.00
2010,11,03,12,11,394.00
2010,11,03,12,12,396.50
2010,11,03,12,13,394.30
2010,11,03,12,14,396.10
2010,11,03,12,15,397.00
2010,11,03,12,16,397.00
2010,11,03,12,17,397.00
2010,11,03,12,18,397.00
2010,11,03,12,19,398.30
2010,11,03,12,20,400.50
2010,11,03,12,21,399.30
2010,11,03,12,22,400.80
2010,11,03,12,23,401.30
2010,11,03,12,24,402.50
2010,11,03,12,25,401.00
2010,11,03,12,26,401.00
2010,11,03,12,27,402.10
2010,11,03,12,28,403.00
2010,11,03,12,29,403.00
2010,11,03,12,30,403.00
2010,11,03,12,31,403.10
2010,11,03,12,32,403.80
2010,11,03,12,33,403.00
2010,11,03,12,34,403.40
2010,11,03,12,35,403.50
2010,11,03,12,36,403.60
2010,11,03,12,37,404.00
2010,11,03,12,38,405.70
2010,11,03,12,39,404.10
2010,11,03,12,40,405.70
2010,11,03,12,41,404.00
2010,11,03,12,42,404.70
2010,11,03,12,43,406.00
2010,11,03,12,44,406.00
2010,11,03,12,45,406.00
2010,11,03,12,46,406.00
2010,11,03,12,47,406.00
2010,11,03,12,48,406.00
2010,11,03,12,49,406.00
2010,11,03,12,50,406.00
2010,11,03,12,51,406.00
2010,11,03,12,52,406.00
2010,11,03,12,53,406.00
2010,11,03,12,54,406.00
2010,11,03,12,55,406.00
2010,11,03,12,56,406.00
2010,11,03,12,57,406.00
2010,11,03,12,58,406.00
2010,11,03,12,59,406.00
2010,11,03,13,00,406.00
2010,11,03,13,01,406.00
2010,11,03,13,02,406.00
2010,11,03,13,03,404.50
2010,11,03,13,04,404.00
2010,11,03,13,05,405.90
2010,11,03,13,06,405.70
2010,11,03,13,07,403.10
2010,11,03,13,08,402.10
2010,11,03,13,09,404.00
2010,11,03,13,10,404.00
2010,11,03,13,11,404.00
2010,11,03,13,12,404.00
2010,11,03,13,13,404.00
2010,11,03,13,14,403.90
2010,11,03,13,15,403.00
2010,11,03,13,16,403.00
2010,11,03,13,17,403.00
2010,11,03,13,18,403.00
2010,11,03,13,19,401.80
2010,11,03,13,20,401.00
2010,11,03,13,21,401.00
2010,11,03,13,22,400.90
2010,11,03,13,23,399.30
2010,11,03,13,24,400.50
2010,11,03,13,25,399.00
2010,11,03,13,26,399.00
2010,11,03,13,27,397.90
2010,11,03,13,28,397.00
2010,11,03,13,29,397.00
2010,11,03,13,30,397.00
2010,11,03,13,31,397.00
2010,11,03,13,32,396.00
2010,11,03,13,33,396.00
2010,11,03,13,34,395.20
2010,11,03,13,35,395.00
2010,11,03,13,36,394.80
2010,11,03,13,37,394.00
2010,11,03,13,38,392.40
2010,11,03,13,39,392.00
2010,11,03,13,40,392.00
2010,11,03,13,41,391.60
2010,11,03,13,42,390.00
2010,11,03,13,43,389.20
2010,11,03,13,44,388.00
2010,11,03,13,45,387.40
2010,11,03,13,46,387.00
2010,11,03,13,47,387.00
2010,11,03,13,48,386.90
2010,11,03,13,49,384.70
2010,11,03,13,50,383.50
2010,11,03,13,51,384.30
2010,11,03,13,52,383.00
2010,11,03,13,53,381.90
2010,11,03,13,54,381.00
2010,11,03,13,55,380.20
2010,11,03,13,56,380.00
2010,11,03,13,57,378.00
2010,11,03,13,58,378.00
2010,11,03,13,59,377.40
2010,11,03,14,00,376.00
2010,11,03,14,01,375.00
2010,11,03,14,02,374.00
2010,11,03,14,03,373.30
2010,11,03,14,04,373.00
2010,11,03,14,05,371.10
2010,11,03,14,06,370.70
2010,11,03,14,07,369.00
2010,11,03,14,08,368.30
2010,11,03,14,09,367.00
2010,11,03,14,10,366.40
2010,11,03,14,11,366.00
2010,11,03,14,12,364.50
2010,11,03,14,13,364.00
2010,11,03,14,14,362.00
2010,11,03,14,15,361.70
2010,11,03,14,16,359.70
2010,11,03,14,17,359.00
2010,11,03,14,18,358.00
2010,11,03,14,19,357.00
2010,11,03,14,20,355.60
2010,11,03,14,21,355.00
2010,11,03,14,22,353.20
2010,11,03,14,23,351.80
2010,11,03,14,24,350.00
2010,11,03,14,25,349.40
2010,11,03,14,26,348.00
2010,11,03,14,27,347.00
2010,11,03,14,28,345.40
2010,11,03,14,29,343.50
2010,11,03,14,30,343.00
2010,11,03,14,31,342.90
2010,11,03,14,32,340.70
2010,11,03,14,33,339.00
2010,11,03,14,34,339.00
2010,11,03,14,35,337.60
2010,11,03,14,36,334.90
2010,11,03,14,37,332.60
2010,11,03,14,38,330.40
2010,11,03,14,39,330.00
2010,11,03,14,40,329.00
2010,11,03,14,41,328.60
2010,11,03,14,42,326.40
2010,11,03,14,43,325.00
2010,11,03,14,44,324.00
2010,11,03,14,45,322.40
2010,11,03,14,46,320.60
2010,11,03,14,47,320.00
2010,11,03,14,48,318.10
2010,11,03,14,49,316.00
2010,11,03,14,50,315.80
2010,11,03,14,51,315.00
2010,11,03,14,52,313.40
2010,11,03,14,53,311.00
2010,11,03,14,54,309.70
2010,11,03,14,55,308.20
2010,11,03,14,56,306.30
2010,11,03,14,57,303.90
2010,11,03,14,58,302.00
2010,11,03,14,59,301.80
2010,11,03,15,00,301.00
2010,11,03,15,01,299.00
2010,11,03,15,02,295.80
2010,11,03,15,03,294.30
2010,11,03,15,04,294.00
2010,11,03,15,05,294.00
2010,11,03,15,06,291.80
2010,11,03,15,07,289.50
2010,11,03,15,08,287.70
2010,11,03,15,09,286.20
2010,11,03,15,10,284.00
2010,11,03,15,11,281.70
2010,11,03,15,12,279.50
2010,11,03,15,13,278.10
2010,11,03,15,14,277.90
2010,11,03,15,15,275.70
2010,11,03,15,16,273.50
2010,11,03,15,17,271.70
2010,11,03,15,18,270.00
2010,11,03,15,19,267.80
2010,11,03,15,20,265.60
2010,11,03,15,21,264.20
2010,11,03,15,22,264.00
2010,11,03,15,23,260.00
2010,11,03,15,24,258.00
2010,11,03,15,25,257.00
2010,11,03,15,26,254.20
2010,11,03,15,27,252.00
2010,11,03,15,28,250.40
2010,11,03,15,29,248.60
2010,11,03,15,30,246.30
2010,11,03,15,31,244.10
2010,11,03,15,32,242.70
2010,11,03,15,33,240.00
2010,11,03,15,34,236.70
2010,11,03,15,35,234.20
2010,11,03,15,36,230.90
2010,11,03,15,37,229.30
2010,11,03,15,38,227.50
2010,11,03,15,39,225.30
2010,11,03,15,40,222.90
2010,11,03,15,41,219.60
2010,11,03,15,42,216.90
2010,11,03,15,43,213.60
2010,11,03,15,44,212.00
2010,11,03,15,45,209.80
2010,11,03,15,46,207.60
2010,11,03,15,47,206.20
2010,11,03,15,48,202.40
2010,11,03,15,49,199.70
2010,11,03,15,50,196.60
2010,11,03,15,51,194.40
2010,11,03,15,52,192.60
2010,11,03,15,53,189.80
2010,11,03,15,54,186.70
2010,11,03,15,55,183.70
2010,11,03,15,56,181.40
2010,11,03,15,57,179.00
2010,11,03,15,58,175.70
2010,11,03,15,59,173.50
2010,11,03,16,00,171.00
2010,11,03,16,01,168.00
2010,11,03,16,02,165.90
2010,11,03,16,03,163.60
2010,11,03,16,04,162.20
2010,11,03,16,05,158.50
2010,11,03,16,06,155.70
2010,11,03,16,07,152.60
2010,11,03,16,08,150.10
2010,11,03,16,09,147.20
2010,11,03,16,10,145.00
2010,11,03,16,11,142.20
2010,11,03,16,12,139.50
2010,11,03,16,13,137.40
2010,11,03,16,14,135.10
2010,11,03,16,15,131.70
2010,11,03,16,16,129.50
2010,11,03,16,17,127.70
2010,11,03,16,18,126.10
2010,11,03,16,19,122.70
2010,11,03,16,20,120.40
2010,11,03,16,21,116.90
2010,11,03,16,22,114.30
2010,11,03,16,23,112.90
2010,11,03,16,24,110.30
2010,11,03,16,25,106.40
2010,11,03,16,26,104.60
2010,11,03,16,27,102.20
2010,11,03,16,28,100.00
2010,11,03,16,29,97.90
2010,11,03,16,30,95.40
2010,11,03,16,31,93.30
2010,11,03,16,32,90.90
2010,11,03,16,33,89.10
2010,11,03,16,34,85.40
2010,11,03,16,35,83.60
2010,11,03,16,36,82.00
2010,11,03,16,37,79.70
2010,11,03,16,38,77.50
2010,11,03,16,39,76.20
2010,11,03,16,40,72.10
2010,11,03,16,41,69.90
2010,11,03,16,42,68.50
2010,11,03,16,43,66.20
2010,11,03,16,44,64.00
2010,11,03,16,45,62.40
2010,11,03,16,46,60.70
2010,11,03,16,47,58.40
2010,11,03,16,48,56.20
2010,11,03,16,49,53.90
2010,11,03,16,50,52.60
2010,11,03,16,51,50.40
2010,11,03,16,52,49.00
2010,11,03,16,53,48.00
2010,11,03,16,54,46.40
2010,11,03,16,55,44.60
2010,11,03,16,56,42.40
2010,11,03,16,57,40.10
2010,11,03,16,58,39.00
2010,11,03,16,59,38.50
2010,11,03,17,00,36.30
2010,11,03,17,01,34.10
2010,11,03,17,02,32.40
2010,11,03,17,03,32.00
2010,11,03,17,04,30.50
2010,11,03,17,05,28.20
2010,11,03,17,06,27.80
2010,11,03,17,07,25.80
2010,11,03,17,08,25.00
2010,11,03,17,09,24.20
2010,11,03,17,10,23.00
2010,11,03,17,11,23.00
2010,11,03,17,12,21.60
2010,11,03,17,13,21.00
2010,11,03,17,14,21.00
2010,11,03,17,15,20.80
2010,11,03,17,16,19.00
2010,11,03,17,17,19.00
2010,11,03,17,18,19.00
2010,11,03,17,19,19.00
2010,11,03,17,20,19.00
2010,11,03,17,21,18.20